CZ-6A DEB

Satellite information

Favourite Embed

Satellite Type and Status

DEBRISIN ORBIT

Key statistics

Satellite CZ-6A DEB at a glance.

Uptime

1128

Days in orbit

Revolutions

≈ 14.5

Per day

Orbit

SSO

Sun Synchronous Orbit

Inclination

98.5

Latest

Satellite identification and parameters

Extended collection of information and parameters for CZ-6A DEB.

Object identification

Identified? True

Debris? True

Object name: CZ-6A DEB

International designator: 2022-151FQ

Object number (NORAD): 54440

Object ID (CCSDS): 54440

Country: PEOPLES REPUBLIC OF CHINA (PRC)

Current information (Y/N): Y

RCS size: SMALL

Orbital parameters

Period: 99.383 minutes

Inclination: 98.4898 deg

SMA: 7107.235 km

Apoapsis: 785.466 km

Periapsis: 672.733 km

RAAN: 356.8408 deg

Eccentricy: 0.0079309

Argument of periapsis: 172.8227 deg

Mean anomaly: 187.4121 deg

Mean motion: 14.48944614 rev/day

Mean motion (dot): 0.00007105 rev/day2

B* drag term: 0.001813 1/REarth

Two-line elements (TLE)

Creation date: Dec. 12, 2025, 7:26 a.m.

Reference frame: TEME

Reference center: EARTH

Epoch: Dec. 11, 2025, 11:46 p.m. UTC

TLE line 0: 0 CZ-6A DEB

TLE line 1: 1 54440U 22151FQ 25345.99080704 .00007105 00000-0 18130-2 0 9992

TLE line 2: 2 54440 98.4898 356.8408 0079309 172.8227 187.4121 14.48944614161801

Live tracking on map

Real-time ground track for satellite CZ-6A DEB.

In-orbit conjunctions

A list of the most updated potential collisions computed for object CZ-6A DEB.

Target Orbit TCA Probability of collision Miss distance Type
DMSP 5D-3 F18 DEB SSO 2025-09-09 23:25:50 0.000477006 169.0 (m) DEBRIS
CZ-6A DEB LEO 2025-06-03 12:08:35 0.0001010153 624.0 (m) DEBRIS
COSMOS 1420 LEO 2024-11-24 10:20:07 0.0001166558 182.0 (m) PAYLOAD

Associated space launch

Chinese satellite reported for atmospheric/ocean/environmental/spatial parameter research purposes, details TBD.

CZ-6A DEB was lifted into orbit during the mission ‘Long March 6A | Yunhai 3’, on board a Long March 6A space rocket.

The launch took place on Nov. 11, 2022, 10:52 p.m. from Launch Complex 9A.

For more information about the launch, click the button.

Launch to space Long March 6A | Yunhai 3
Long March 6A | Yunhai 3

Agency: N/A

Status: Launch Successful

Launch date: Nov. 11, 2022, 10:52 p.m. UTC

Rocket: Long March 6A

Launch pad: Launch Complex 9A

Location: Taiyuan Satellite Launch Center, People's Republic of China

...

Latest news about this satellite

There are no fresh news available about this satellite. Check back as we update our databases every day.


Newsletter sign-up

Weekly statistics, charts and insights to help you stay on top of the space industry.